Location: Pcim
(49.7500°N, 19.9670°E)
Time: 21:13:38
(UTC+02:00)

MOZHAYETS 4 - Pass Details

Date: 26 April 2024
Orbit: 652 x 670 km, 98.3° (Epoch: 20 May)

Event Time Altitude Azimuth Distance (km) Brightness Sun altitude
Rises 01:53:05 0° 101° (ESE) 3,018 11.2 -24.5°
Reaches altitude 10° 01:57:16 10° 64° (ENE) 2,109 10.9 -24.3°
Maximum altitude 01:58:13 11° 52° (NE) 2,071 11.0 -24.2°
Drops below altitude 10° 01:59:10 10° 40° (NE) 2,111 11.2 -24.2°
Sets 02:03:21 0° 3° (N) 3,029 12.3 -23.9°
